Wind_Speed
10 8 5 7 8 6 6 7 9 11 12 12 10 9 6 5 4 4 5 7 9 11 12 12 11 12 11 13 15 15 16 17 17 16 16 16 16 16 16 16 15 14 11
13 11 8 9 10 8 7 7 9 11 12 12 11 8 6 4 4 4 3 6 8 10 12 12 12 14 14 13 14 15 15 16 16 15 16 16 17 16 16 16 14 13 12
13 13 12 11 11 11 8 8 9 10 12 12 10 8 5 4 3 4 7 8 10 10 12 13 14 15 14 15 15 15 15 15 16 14 15 16 16 17 16 15 14 13 11
16 17 13 14 12 12 10 10 9 11 12 11 10 8 6 6 6 7 5 6 6 8 9 15 17 17 15 15 15 15 15 14 15 16 15 15 14 14 14 13 13 12 11
19 19 16 15 13 13 11 11 10 11 13 13 9 8 8 9 9 8 5 5 5 3 14 9 13 17 15 14 15 15 15 15 15 14 13 13 10 10 10 10 10 11 11
20 20 17 16 13 14 14 13 11 11 13 13 12 10 10 11 10 8 9 9 9 8 7 11 15 18 14 13 13 13 13 14 14 12 11 10 9 7 7 6 7 9 8
20 22 18 18 16 15 16 16 13 12 13 14 16 10 11 12 10 9 9 8 7 7 9 8 10 12 10 11 12 12 12 12 11 10 9 9 7 6 6 6 6 8 7
21 25 19 20 17 14 17 17 16 15 15 16 17 17 12 13 10 10 10 10 10 10 8 6 9 10 10 10 11 13 12 12 13 10 10 9 8 9 8 7 7 7 6
24 27 22 22 19 15 18 20 19 17 17 19 18 18 15 15 12 10 10 10 11 10 7 6 10 12 10 12 12 14 14 11 11 13 10 10 9 9 9 8 8 7 6
24 26 25 23 21 19 20 20 18 15 14 15 15 16 15 13 11 9 8 8 7 6 5 8 7 8 14 17 15 15 14 13 13 12 11 10 10 8 8 8 7 8 7
26 27 26 25 25 20 20 20 20 19 20 21 21 19 16 14 12 12 10 7 7 7 7 6 3 11 19 18 17 16 13 13 13 12 11 12 12 10 9 8 6 6 6
29 30 29 29 26 22 23 22 23 24 23 20 20 20 20 17 14 14 13 13 12 12 9 6 4 9 14 14 14 17 14 11 11 12 14 10 12 12 9 9 8 6 3
33 33 32 28 26 24 24 24 25 24 24 25 26 24 22 19 18 16 16 15 13 11 9 8 7 7 6 6 13 16 15 15 13 10 19 5 6 7 6 6 3 2 2
31 33 33 32 31 30 30 29 26 26 28 29 28 26 25 24 21 20 19 17 15 13 11 10 10 9 10 10 9 8 13 11 13 15 12 8 4 2 4 2 3 4 4
34 35 35 34 34 34 34 31 29 27 29 29 25 26 28 27 26 24 22 21 18 17 15 13 12 12 12 12 11 13 11 11 12 11 8 13 6 10 5 4 4 6 7
37 37 35 34 36 37 38 36 32 35 33 27 31 29 26 28 29 28 27 25 23 21 19 17 16 15 14 13 13 12 12 15 17 17 14 12 12 13 11 9 8 6 6
38 41 41 33 34 35 32 31 30 32 33 30 33 26 35 33 28 29 32 29 27 25 23 21 20 19 18 17 16 15 15 16 15 13 12 14 13 15 15 13 11 9 10
39 41 40 43 40 41 35 33 36 27 29 28 27 22 29 27 28 29 31 31 31 30 28 26 25 23 22 21 21 20 19 18 18 18 17 17 12 18 16 17 16 15 11
39 41 43 41 38 39 41 35 35 34 30 31 27 26 32 33 34 32 28 30 31 28 32 30 28 26 25 26 25 25 24 21 19 19 20 21 21 24 22 21 20 20 17
40 41 43 46 45 37 38 39 35 35 34 31 28 28 31 34 31 31 28 25 28 31 31 33 30 32 30 30 29 28 26 24 23 22 20 22 24 25 25 26 26 24 24
38 41 41 40 38 45 40 37 38 37 33 37 38 33 36 37 34 37 29 24 27 29 32 29 33 30 33 32 30 30 29 29 27 24 23 23 25 27 27 27 27 26 26
36 38 41 42 42 39 45 44 38 38 36 30 37 38 33 31 33 36 33 25 26 28 31 33 36 36 29 33 31 29 30 29 30 27 26 25 25 27 28 28 28 28 28
43 38 41 42 42 42 38 39 43 36 35 31 33 36 31 32 32 31 29 26 25 27 30 31 30 30 34 35 29 31 34 34 31 31 30 28 27 28 29 30 31 31 31
45 46 44 43 43 42 42 39 39 41 36 35 37 35 29 34 37 35 33 32 26 26 29 31 30 33 33 32 34 35 33 29 34 35 33 32 31 30 30 31 31 32 33
43 46 47 46 44 44 42 43 41 39 35 37 39 38 38 34 32 29 30 36 33 29 26 32 33 32 31 34 33 34 34 38 43 32 32 34 34 32 32 32 33 33 34
47 47 45 44 44 43 45 43 40 36 40 40 38 35 34 29 28 25 27 29 37 36 26 28 34 35 39 36 31 36 41 37 32 34 32 31 34 35 34 33 34 34 35
Wind_Direction
202 202 211 182 172 165 155 149 153 163 169 171 165 164 151 140 138 133 155 156 152 147 148 146 139 130 131 137 137 136 134 130 126 121 118 116 117 114 111 114 118 120 110
197 210 214 178 174 177 167 155 156 167 169 169 168 166 149 142 142 137 164 178 168 161 154 148 143 140 137 137 136 140 139 136 133 129 125 122 115 113 110 108 115 115 113
193 187 195 173 179 188 183 168 165 167 170 169 174 166 159 149 133 137 145 138 153 156 161 151 143 143 143 139 140 140 141 141 136 132 131 125 118 113 109 110 111 111 110
206 184 182 180 182 195 188 176 168 169 175 176 176 171 162 160 149 143 163 150 172 189 183 148 139 138 144 145 144 146 145 147 144 146 142 135 126 118 113 108 106 102 103
196 189 184 184 182 193 187 180 172 174 178 171 177 166 157 150 149 150 130 185 99 76 161 157 152 138 141 145 150 153 152 151 151 154 151 146 143 131 126 118 109 99 93
196 195 190 190 184 192 189 186 180 178 179 177 168 166 154 148 142 134 116 125 115 99 157 168 167 156 145 150 154 150 154 158 160 161 164 162 159 153 145 137 122 106 110
202 197 194 194 190 194 191 190 186 185 182 177 170 173 162 154 147 136 115 111 133 139 133 147 147 159 162 160 164 161 157 158 149 159 163 160 155 154 151 147 143 132 139
204 199 200 199 190 195 193 192 191 188 186 184 177 172 177 166 153 144 129 118 128 152 163 192 183 183 171 171 175 167 167 170 160 152 155 146 142 139 131 126 130 143 149
203 205 204 203 194 199 195 195 195 193 192 190 187 179 174 171 159 150 143 137 135 135 141 178 188 186 173 167 172 161 158 170 173 174 162 157 152 144 139 134 126 126 129
203 207 209 205 207 201 200 201 197 196 193 190 191 179 176 171 162 162 160 155 156 145 126 110 162 178 187 171 164 155 151 153 153 150 149 156 154 150 154 147 138 132 129
202 209 209 207 212 216 212 201 199 195 194 195 191 186 189 177 185 180 171 157 148 157 169 159 129 191 196 180 170 158 155 163 159 146 134 140 134 130 128 142 152 146 140
206 207 210 210 217 218 216 208 204 202 203 202 199 196 196 198 195 194 190 186 186 192 188 177 140 146 164 175 180 157 167 173 168 150 145 137 112 111 120 121 113 114 138
203 207 211 215 216 222 221 218 212 210 205 205 205 207 211 213 207 206 207 204 203 211 207 202 186 182 193 216 214 226 210 210 210 181 183 163 125 119 102 116 120 128 175
206 205 208 209 212 216 214 213 216 214 211 213 214 220 217 218 216 215 219 220 216 217 217 215 214 214 208 209 203 204 185 194 219 218 223 228 174 175 179 145 186 234 223
213 209 208 210 211 215 215 213 212 218 220 221 215 228 222 224 225 219 221 225 226 226 225 224 223 223 225 221 220 213 210 212 214 213 213 231 228 211 229 233 242 240 236
217 216 219 217 219 214 214 213 215 217 219 219 228 233 231 229 232 224 222 223 226 229 233 234 231 233 235 233 232 232 233 226 239 228 226 226 215 226 225 246 266 277 241
216 215 212 220 220 214 222 226 217 213 220 228 233 230 230 236 234 231 225 224 226 228 232 236 240 238 238 241 242 241 241 238 245 242 243 225 235 241 245 252 241 260 270
214 216 220 214 210 214 215 223 219 227 230 230 223 223 228 226 233 229 230 231 228 227 229 233 236 240 243 241 242 243 242 243 248 250 248 245 246 234 239 247 261 260 246
213 213 216 213 210 209 223 219 227 224 227 225 230 232 225 240 240 240 233 233 231 232 234 232 239 241 245 249 249 247 246 245 248 250 247 249 247 245 247 246 245 248 254
212 211 213 214 215 207 209 223 219 222 226 223 236 219 243 237 247 245 236 233 239 238 237 236 237 241 243 247 253 257 255 245 244 250 254 249 248 251 252 252 252 245 242
213 212 211 215 212 218 223 219 219 226 223 234 223 233 242 249 248 248 249 250 243 241 240 245 233 241 246 248 252 253 258 256 247 244 247 248 247 248 249 249 251 254 249
215 212 209 212 215 214 216 221 211 227 218 216 228 241 233 239 246 250 255 249 242 241 235 225 230 239 239 243 255 258 256 254 260 252 249 249 249 249 250 252 253 253 252
216 213 211 211 213 217 217 214 226 223 229 234 234 229 240 250 250 252 263 264 251 238 236 231 230 232 241 243 248 249 251 261 261 260 257 254 252 250 250 250 251 252 254
213 213 213 214 215 219 217 225 227 221 238 223 233 246 236 228 237 249 264 267 260 256 244 230 237 233 234 246 242 253 253 254 259 263 259 256 257 256 255 255 255 256 257
214 213 213 215 217 220 222 223 231 225 220 228 244 233 228 242 255 258 264 271 268 267 256 238 238 233 238 236 243 247 242 254 263 261 261 254 255 257 257 257 257 257 258
217 216 215 217 218 221 225 226 228 224 230 236 220 236 243 241 233 244 253 265 276 276 266 247 231 235 238 238 241 247 254 254 257 259 254 259 258 256 258 258 258 259 260
Height
3137 3139 3140 3141 3143 3145 3145 3146 3147 3149 3150 3152 3154 3155 3156 3157 3157 3159 3160 3162 3163 3164 3166 3167 3169 3170 3171 3173 3175 3176 3178 3179 3180 3181 3182 3183 3184 3185 3186 3187 3188 3189 3190
3136 3138 3140 3141 3143 3145 3146 3147 3148 3150 3151 3153 3154 3156 3156 3157 3158 3160 3161 3162 3164 3164 3166 3168 3170 3172 3173 3174 3176 3178 3179 3181 3182 3183 3184 3185 3186 3187 3188 3189 3191 3192 3192
3134 3137 3139 3141 3143 3145 3146 3147 3149 3150 3152 3154 3156 3157 3158 3158 3160 3160 3162 3162 3164 3165 3167 3169 3171 3173 3175 3176 3178 3180 3182 3183 3184 3185 3187 3188 3189 3190 3191 3192 3193 3194 3194
3133 3136 3138 3139 3142 3145 3146 3148 3149 3151 3153 3155 3157 3158 3159 3160 3161 3162 3163 3164 3164 3164 3167 3169 3171 3174 3176 3178 3180 3182 3183 3185 3186 3187 3188 3190 3191 3192 3193 3194 3195 3196 3196
3131 3134 3137 3139 3141 3144 3146 3147 3150 3151 3153 3155 3157 3159 3160 3161 3162 3163 3164 3164 3163 3165 3167 3169 3173 3173 3177 3179 3181 3183 3185 3186 3187 3189 3190 3192 3193 3194 3195 3196 3197 3198 3198
3130 3133 3136 3138 3141 3144 3145 3147 3149 3152 3153 3156 3157 3159 3161 3162 3163 3164 3165 3165 3166 3167 3169 3170 3172 3174 3178 3180 3182 3184 3186 3188 3189 3190 3191 3193 3194 3195 3196 3197 3198 3199 3200
3129 3132 3135 3137 3140 3142 3144 3147 3149 3152 3154 3156 3158 3160 3162 3163 3164 3165 3166 3167 3167 3169 3171 3173 3175 3177 3178 3181 3183 3185 3187 3188 3190 3191 3192 3193 3195 3196 3197 3198 3199 3201 3201
3126 3130 3133 3136 3138 3141 3143 3146 3149 3151 3153 3156 3158 3160 3162 3164 3165 3166 3167 3169 3169 3171 3172 3174 3175 3178 3179 3182 3184 3185 3187 3189 3190 3192 3193 3194 3195 3197 3198 3199 3200 3201 3202
3124 3127 3130 3133 3136 3139 3142 3144 3147 3150 3152 3155 3157 3160 3161 3164 3166 3167 3169 3171 3172 3173 3174 3174 3175 3178 3180 3183 3185 3186 3187 3190 3191 3191 3193 3194 3196 3197 3198 3200 3201 3203 3203
3121 3125 3128 3131 3134 3137 3140 3143 3146 3150 3153 3156 3158 3160 3163 3165 3167 3169 3171 3172 3173 3174 3175 3176 3177 3178 3180 3183 3185 3186 3188 3190 3191 3192 3194 3195 3196 3197 3199 3201 3202 3203 3204
3118 3121 3125 3128 3131 3135 3138 3142 3145 3148 3151 3153 3156 3159 3162 3165 3167 3169 3172 3174 3175 3175 3175 3177 3178 3178 3180 3183 3185 3186 3189 3191 3192 3193 3194 3196 3197 3198 3200 3201 3202 3203 3204
3114 3117 3121 3124 3129 3133 3136 3139 3142 3145 3149 3152 3156 3158 3161 3164 3166 3169 3171 3172 3173 3174 3176 3178 3179 3179 3181 3184 3186 3187 3189 3191 3193 3194 3196 3197 3197 3199 3200 3202 3203 3204 3205
3109 3113 3116 3121 3127 3129 3133 3136 3140 3143 3147 3150 3153 3157 3160 3163 3165 3167 3169 3172 3173 3175 3176 3178 3180 3181 3182 3183 3185 3186 3190 3191 3193 3194 3196 3197 3199 3199 3201 3202 3204 3204 3205
3105 3109 3113 3117 3122 3125 3129 3132 3136 3141 3144 3147 3151 3154 3158 3160 3163 3166 3168 3170 3172 3174 3176 3178 3179 3181 3183 3184 3186 3187 3188 3190 3192 3194 3196 3198 3199 3200 3199 3202 3203 3204 3205
3101 3105 3110 3114 3117 3122 3126 3129 3133 3137 3141 3144 3148 3151 3154 3158 3160 3163 3166 3168 3171 3172 3175 3177 3179 3181 3182 3184 3186 3187 3188 3190 3192 3194 3195 3196 3198 3199 3200 3202 3203 3204 3204
3096 3099 3105 3110 3114 3118 3122 3126 3130 3133 3137 3140 3144 3147 3150 3154 3157 3160 3163 3166 3168 3171 3173 3175 3177 3179 3181 3183 3185 3187 3188 3190 3191 3193 3194 3196 3197 3198 3199 3201 3202 3203 3202
3090 3095 3099 3103 3109 3114 3118 3123 3127 3130 3133 3137 3140 3143 3146 3148 3152 3155 3158 3162 3165 3168 3170 3173 3175 3177 3179 3181 3183 3184 3186 3188 3189 3191 3192 3194 3195 3197 3198 3199 3201 3203 3202
3083 3089 3093 3099 3105 3110 3115 3118 3123 3126 3129 3133 3137 3139 3142 3145 3148 3151 3154 3157 3160 3163 3166 3169 3172 3174 3177 3179 3181 3182 3184 3186 3187 3189 3191 3192 3194 3193 3197 3198 3200 3201 3203
3077 3083 3088 3094 3098 3103 3110 3114 3118 3121 3124 3128 3132 3136 3138 3141 3143 3147 3151 3153 3155 3159 3162 3165 3168 3171 3173 3175 3177 3179 3181 3182 3184 3186 3188 3189 3191 3191 3194 3195 3197 3198 3200
3070 3076 3081 3087 3093 3098 3103 3108 3112 3116 3119 3124 3127 3130 3133 3136 3139 3141 3145 3150 3152 3154 3157 3161 3164 3166 3169 3171 3173 3174 3176 3179 3181 3183 3184 3186 3187 3188 3190 3191 3192 3195 3196
3064 3070 3075 3081 3087 3093 3096 3099 3106 3107 3114 3118 3122 3125 3129 3130 3134 3135 3140 3145 3146 3149 3151 3154 3158 3161 3163 3166 3168 3170 3172 3173 3176 3178 3181 3182 3183 3184 3186 3187 3188 3190 3191
3059 3064 3070 3076 3082 3087 3092 3097 3100 3105 3109 3112 3116 3120 3124 3125 3129 3131 3134 3138 3141 3143 3146 3150 3152 3155 3159 3160 3163 3165 3167 3169 3170 3173 3175 3177 3178 3179 3181 3182 3183 3184 3186
3053 3059 3065 3071 3075 3081 3086 3091 3096 3100 3104 3107 3111 3115 3117 3120 3124 3127 3130 3132 3135 3137 3139 3143 3146 3149 3153 3156 3157 3161 3161 3162 3165 3166 3169 3171 3173 3174 3176 3177 3178 3179 3181
3046 3053 3059 3065 3070 3075 3081 3085 3090 3095 3099 3103 3105 3110 3112 3115 3118 3121 3124 3127 3130 3133 3134 3137 3140 3142 3146 3149 3152 3155 3156 3158 3159 3161 3163 3164 3166 3168 3169 3171 3172 3173 3174
3039 3046 3051 3057 3064 3069 3075 3080 3084 3090 3094 3095 3099 3103 3106 3110 3112 3116 3119 3121 3123 3127 3129 3130 3133 3137 3140 3142 3144 3147 3149 3151 3152 3154 3156 3159 3160 3161 3163 3165 3165 3166 3168
3032 3039 3045 3051 3056 3062 3067 3073 3078 3084 3089 3092 3094 3096 3101 3105 3107 3111 3114 3115 3117 3119 3123 3125 3127 3130 3133 3136 3138 3141 3142 3145 3147 3148 3149 3152 3153 3155 3156 3158 3159 3160 3161